owner,sensor,date,latitude,longitude,vertical_datum,wind_speed,wind_to_direction,wind_speed_of_gust,qcFlag 
FIT,ioos:station:wmo:SIPF1:1,2019-03-07T17:00:00Z,27.8620,-80.4450,1.0,4.1,18.0,99.0,'11111222,11111222,11144222' 
FIT,ioos:station:wmo:SIPF1:1,2019-03-07T17:15:00Z,27.8620,-80.4450,1.0,3.9,57.0,99.0,'11111222,11111222,11144222' 
FIT,ioos:station:wmo:SIPF1:1,2019-03-07T17:30:00Z,27.8620,-80.4450,1.0,4.3,71.0,99.0,'11111222,11111222,11144222' 
FIT,ioos:station:wmo:SIPF1:1,2019-03-07T17:45:00Z,27.8620,-80.4450,1.0,4.1,70.0,-9999.0,'1111122,1111122,1111122' 
FIT,ioos:station:wmo:SIPF1:1,2019-03-07T18:00:00Z,27.8620,-80.4450,1.0,3.7,64.0,99.0,'11111222,11111222,11144222' 
FIT,ioos:station:wmo:SIPF1:1,2019-03-07T18:15:00Z,27.8620,-80.4450,1.0,3.2,63.0,99.0,'11111222,11111222,11144222' 
FIT,ioos:station:wmo:SIPF1:1,2019-03-07T18:30:00Z,27.8620,-80.4450,1.0,3.3,63.0,99.0,'11111222,11111222,11144222' 
FIT,ioos:station:wmo:SIPF1:1,2019-03-07T18:45:00Z,27.8620,-80.4450,1.0,3.1,60.0,-9999.0,'1111122,1111122,1111122' 
FIT,ioos:station:wmo:SIPF1:1,2019-03-07T19:00:00Z,27.8620,-80.4450,1.0,3.3,68.0,99.0,'11111222,11111222,11144222' 
FIT,ioos:station:wmo:SIPF1:1,2019-03-07T19:15:00Z,27.8620,-80.4450,1.0,3.2,69.0,99.0,'11111222,11111222,11144222' 
FIT,ioos:station:wmo:SIPF1:1,2019-03-07T19:30:00Z,27.8620,-80.4450,1.0,3.1,74.0,99.0,'11111222,11111222,11144222' 
FIT,ioos:station:wmo:SIPF1:1,2019-03-07T19:45:00Z,27.8620,-80.4450,1.0,2.6,80.0,-9999.0,'1111122,1111122,1111122' 
FIT,ioos:station:wmo:SIPF1:1,2019-03-07T20:00:00Z,27.8620,-80.4450,1.0,2.7,77.0,99.0,'11111222,11111222,11144222' 
FIT,ioos:station:wmo:SIPF1:1,2019-03-07T20:15:00Z,27.8620,-80.4450,1.0,2.6,81.0,99.0,'11111222,11111222,11144222' 
FIT,ioos:station:wmo:SIPF1:1,2019-03-07T20:30:00Z,27.8620,-80.4450,1.0,3.4,76.0,99.0,'11111222,11111222,11144222' 
FIT,ioos:station:wmo:SIPF1:1,2019-03-07T20:45:00Z,27.8620,-80.4450,1.0,3.6,80.0,-9999.0,'1111122,1111122,1111122' 
FIT,ioos:station:wmo:SIPF1:1,2019-03-07T21:00:00Z,27.8620,-80.4450,1.0,3.7,71.0,99.0,'11111222,11111222,11144222' 
FIT,ioos:station:wmo:SIPF1:1,2019-03-07T21:15:00Z,27.8620,-80.4450,1.0,3.6,69.0,99.0,'11111222,11111222,11144222' 
FIT,ioos:station:wmo:SIPF1:1,2019-03-07T21:30:00Z,27.8620,-80.4450,1.0,3.4,73.0,99.0,'11111222,11111222,11144222' 
FIT,ioos:station:wmo:SIPF1:1,2019-03-07T21:45:00Z,27.8620,-80.4450,1.0,3.6,80.0,-9999.0,'1111122,1111122,1111122' 
FIT,ioos:station:wmo:SIPF1:1,2019-03-07T22:00:00Z,27.8620,-80.4450,1.0,3.5,86.0,99.0,'11111222,11111222,11144222' 
FIT,ioos:station:wmo:SIPF1:1,2019-03-07T22:15:00Z,27.8620,-80.4450,1.0,3.0,88.0,99.0,'11111222,11111222,11144222' 
FIT,ioos:station:wmo:SIPF1:1,2019-03-07T22:30:00Z,27.8620,-80.4450,1.0,3.1,85.0,99.0,'11111222,11111222,11144222' 
FIT,ioos:station:wmo:SIPF1:1,2019-03-07T22:45:00Z,27.8620,-80.4450,1.0,3.6,60.0,-9999.0,'1111122,1111122,1111122' 
FIT,ioos:station:wmo:SIPF1:1,2019-03-07T23:00:00Z,27.8620,-80.4450,1.0,3.4,89.0,99.0,'11111222,11111222,11144222' 
FIT,ioos:station:wmo:SIPF1:1,2019-03-07T23:15:00Z,27.8620,-80.4450,1.0,3.3,102.0,99.0,'11111222,11111222,11144222' 
FIT,ioos:station:wmo:SIPF1:1,2019-03-07T23:30:00Z,27.8620,-80.4450,1.0,3.0,100.0,99.0,'11111222,11111222,11144222' 
FIT,ioos:station:wmo:SIPF1:1,2019-03-07T23:45:00Z,27.8620,-80.4450,1.0,2.1,90.0,-9999.0,'1111122,1111122,1111122' 
FIT,ioos:station:wmo:SIPF1:1,2019-03-08T00:00:00Z,27.8620,-80.4450,1.0,2.6,101.0,99.0,'11111222,11111222,11144222' 
FIT,ioos:station:wmo:SIPF1:1,2019-03-08T00:15:00Z,27.8620,-80.4450,1.0,3.0,89.0,99.0,'11111222,11111222,11144222' 
FIT,ioos:station:wmo:SIPF1:1,2019-03-08T00:30:00Z,27.8620,-80.4450,1.0,3.2,84.0,99.0,'11111222,11111222,11144222' 
FIT,ioos:station:wmo:SIPF1:1,2019-03-08T00:45:00Z,27.8620,-80.4450,1.0,4.6,90.0,-9999.0,'1111122,1111122,1111122' 
FIT,ioos:station:wmo:SIPF1:1,2019-03-08T01:00:00Z,27.8620,-80.4450,1.0,4.6,90.0,99.0,'11111222,11111222,11144222' 
FIT,ioos:station:wmo:SIPF1:1,2019-03-08T01:15:00Z,27.8620,-80.4450,1.0,4.7,93.0,99.0,'11111222,11111222,11144222' 
FIT,ioos:station:wmo:SIPF1:1,2019-03-08T01:30:00Z,27.8620,-80.4450,1.0,4.6,94.0,99.0,'11111222,11111222,11144222' 
FIT,ioos:station:wmo:SIPF1:1,2019-03-08T01:45:00Z,27.8620,-80.4450,1.0,4.6,100.0,-9999.0,'1111122,1111122,1111122' 
FIT,ioos:station:wmo:SIPF1:1,2019-03-08T02:00:00Z,27.8620,-80.4450,1.0,4.9,101.0,99.0,'11111222,11111222,11144222' 
FIT,ioos:station:wmo:SIPF1:1,2019-03-08T02:15:00Z,27.8620,-80.4450,1.0,4.0,104.0,99.0,'11111222,11111222,11144222' 
FIT,ioos:station:wmo:SIPF1:1,2019-03-08T02:30:00Z,27.8620,-80.4450,1.0,3.7,96.0,99.0,'11111222,11111222,11144222' 
FIT,ioos:station:wmo:SIPF1:1,2019-03-08T02:45:00Z,27.8620,-80.4450,1.0,3.1,90.0,-9999.0,'1111122,1111122,1111122' 
FIT,ioos:station:wmo:SIPF1:1,2019-03-08T03:00:00Z,27.8620,-80.4450,1.0,2.9,90.0,99.0,'11111222,11111222,11144222' 
FIT,ioos:station:wmo:SIPF1:1,2019-03-08T03:15:00Z,27.8620,-80.4450,1.0,2.3,93.0,99.0,'11111222,11111222,11144222' 
FIT,ioos:station:wmo:SIPF1:1,2019-03-08T03:30:00Z,27.8620,-80.4450,1.0,1.5,74.0,99.0,'11111222,11111222,11144222' 
FIT,ioos:station:wmo:SIPF1:1,2019-03-08T03:45:00Z,27.8620,-80.4450,1.0,1.0,70.0,-9999.0,'1111122,1111122,1111122' 
FIT,ioos:station:wmo:SIPF1:1,2019-03-08T04:00:00Z,27.8620,-80.4450,1.0,1.6,104.0,99.0,'11111222,11111222,11144222' 
FIT,ioos:station:wmo:SIPF1:1,2019-03-08T04:15:00Z,27.8620,-80.4450,1.0,5.3,132.0,99.0,'11111222,11111222,11144222' 
FIT,ioos:station:wmo:SIPF1:1,2019-03-08T04:30:00Z,27.8620,-80.4450,1.0,5.7,133.0,99.0,'11111222,11111222,11144222' 
FIT,ioos:station:wmo:SIPF1:1,2019-03-08T04:45:00Z,27.8620,-80.4450,1.0,4.6,130.0,-9999.0,'1111122,1111122,1111122' 
FIT,ioos:station:wmo:SIPF1:1,2019-03-08T05:00:00Z,27.8620,-80.4450,1.0,4.6,131.0,99.0,'11111222,11111222,11144222' 
FIT,ioos:station:wmo:SIPF1:1,2019-03-08T05:15:00Z,27.8620,-80.4450,1.0,4.6,126.0,99.0,'11111222,11111222,11144222' 
FIT,ioos:station:wmo:SIPF1:1,2019-03-08T05:30:00Z,27.8620,-80.4450,1.0,4.0,125.0,99.0,'11111222,11111222,11144222' 
FIT,ioos:station:wmo:SIPF1:1,2019-03-08T05:45:00Z,27.8620,-80.4450,1.0,4.1,120.0,-9999.0,'1111122,1111122,1111122' 
FIT,ioos:station:wmo:SIPF1:1,2019-03-08T06:00:00Z,27.8620,-80.4450,1.0,3.8,105.0,99.0,'11111222,11111222,11144222' 
FIT,ioos:station:wmo:SIPF1:1,2019-03-08T06:15:00Z,27.8620,-80.4450,1.0,3.8,105.0,99.0,'11111222,11111222,11144222' 
FIT,ioos:station:wmo:SIPF1:1,2019-03-08T06:30:00Z,27.8620,-80.4450,1.0,3.1,95.0,99.0,'11111222,11111222,11144222' 
FIT,ioos:station:wmo:SIPF1:1,2019-03-08T06:45:00Z,27.8620,-80.4450,1.0,2.6,90.0,-9999.0,'1111122,1111122,1111122' 
FIT,ioos:station:wmo:SIPF1:1,2019-03-08T07:00:00Z,27.8620,-80.4450,1.0,2.5,85.0,99.0,'11111222,11111222,11144222' 
FIT,ioos:station:wmo:SIPF1:1,2019-03-08T07:15:00Z,27.8620,-80.4450,1.0,2.4,74.0,99.0,'11111222,11111222,11144222' 
FIT,ioos:station:wmo:SIPF1:1,2019-03-08T07:30:00Z,27.8620,-80.4450,1.0,2.4,65.0,99.0,'11111222,11111222,11144222' 
FIT,ioos:station:wmo:SIPF1:1,2019-03-08T07:45:00Z,27.8620,-80.4450,1.0,2.1,60.0,-9999.0,'1111122,1111122,1111122' 
FIT,ioos:station:wmo:SIPF1:1,2019-03-08T08:00:00Z,27.8620,-80.4450,1.0,2.1,58.0,99.0,'11111222,11111222,11144222' 
FIT,ioos:station:wmo:SIPF1:1,2019-03-08T08:15:00Z,27.8620,-80.4450,1.0,1.8,63.0,99.0,'11111222,11111222,11144222' 
FIT,ioos:station:wmo:SIPF1:1,2019-03-08T08:30:00Z,27.8620,-80.4450,1.0,1.4,47.0,99.0,'11111222,11111222,11144222' 
FIT,ioos:station:wmo:SIPF1:1,2019-03-08T08:45:00Z,27.8620,-80.4450,1.0,1.5,30.0,-9999.0,'1111122,1111122,1111122' 
FIT,ioos:station:wmo:SIPF1:1,2019-03-08T09:00:00Z,27.8620,-80.4450,1.0,1.9,23.0,99.0,'11111222,11111222,11144222' 
FIT,ioos:station:wmo:SIPF1:1,2019-03-08T09:15:00Z,27.8620,-80.4450,1.0,2.3,2.0,99.0,'11111222,11111222,11144222' 
FIT,ioos:station:wmo:SIPF1:1,2019-03-08T09:30:00Z,27.8620,-80.4450,1.0,1.6,339.0,99.0,'11111222,11111222,11144222' 
FIT,ioos:station:wmo:SIPF1:1,2019-03-08T09:45:00Z,27.8620,-80.4450,1.0,1.0,300.0,-9999.0,'1111122,1111122,1111122' 
FIT,ioos:station:wmo:SIPF1:1,2019-03-08T10:00:00Z,27.8620,-80.4450,1.0,1.8,331.0,99.0,'11111222,11111222,11144222' 
FIT,ioos:station:wmo:SIPF1:1,2019-03-08T10:15:00Z,27.8620,-80.4450,1.0,1.3,312.0,99.0,'11111222,11111222,11144222' 
FIT,ioos:station:wmo:SIPF1:1,2019-03-08T10:30:00Z,27.8620,-80.4450,1.0,1.5,314.0,99.0,'11111222,11111222,11144222' 
FIT,ioos:station:wmo:SIPF1:1,2019-03-08T10:45:00Z,27.8620,-80.4450,1.0,0.5,320.0,-9999.0,'1111122,1111122,1111122' 
FIT,ioos:station:wmo:SIPF1:1,2019-03-08T11:00:00Z,27.8620,-80.4450,1.0,1.1,296.0,99.0,'11111222,11111222,11144222' 
FIT,ioos:station:wmo:SIPF1:1,2019-03-08T11:15:00Z,27.8620,-80.4450,1.0,0.5,303.0,99.0,'11111222,11111222,11144222' 
FIT,ioos:station:wmo:SIPF1:1,2019-03-08T11:30:00Z,27.8620,-80.4450,1.0,0.9,347.0,99.0,'11111222,11111222,11144222' 
FIT,ioos:station:wmo:SIPF1:1,2019-03-08T11:45:00Z,27.8620,-80.4450,1.0,0.5,340.0,-9999.0,'1111122,1111122,1111122' 
FIT,ioos:station:wmo:SIPF1:1,2019-03-08T12:00:00Z,27.8620,-80.4450,1.0,0.9,349.0,99.0,'11111222,11111222,11144222' 
FIT,ioos:station:wmo:SIPF1:1,2019-03-08T12:15:00Z,27.8620,-80.4450,1.0,1.3,340.0,99.0,'11111222,11111222,11144222' 
FIT,ioos:station:wmo:SIPF1:1,2019-03-08T12:30:00Z,27.8620,-80.4450,1.0,1.6,320.0,99.0,'11111222,11111222,11144222' 
FIT,ioos:station:wmo:SIPF1:1,2019-03-08T12:45:00Z,27.8620,-80.4450,1.0,2.6,340.0,-9999.0,'1111122,1111122,1111122' 
FIT,ioos:station:wmo:SIPF1:1,2019-03-08T13:00:00Z,27.8620,-80.4450,1.0,2.7,343.0,99.0,'11111222,11111222,11144222' 
FIT,ioos:station:wmo:SIPF1:1,2019-03-08T13:15:00Z,27.8620,-80.4450,1.0,2.4,356.0,99.0,'11111222,11111222,11144222' 
FIT,ioos:station:wmo:SIPF1:1,2019-03-08T13:30:00Z,27.8620,-80.4450,1.0,2.2,353.0,99.0,'11111222,11111222,11144222' 
FIT,ioos:station:wmo:SIPF1:1,2019-03-08T13:45:00Z,27.8620,-80.4450,1.0,2.6,10.0,-9999.0,'1111122,1111122,1111122' 
FIT,ioos:station:wmo:SIPF1:1,2019-03-08T14:00:00Z,27.8620,-80.4450,1.0,2.3,22.0,99.0,'11111222,11111222,11144222' 
FIT,ioos:station:wmo:SIPF1:1,2019-03-08T14:15:00Z,27.8620,-80.4450,1.0,2.6,11.0,99.0,'11111222,11111222,11144222' 
FIT,ioos:station:wmo:SIPF1:1,2019-03-08T14:30:00Z,27.8620,-80.4450,1.0,2.7,18.0,99.0,'11111222,11111222,11144222' 
FIT,ioos:station:wmo:SIPF1:1,2019-03-08T14:45:00Z,27.8620,-80.4450,1.0,2.7,19.0,99.0,'11111222,11111222,11144222' 
FIT,ioos:station:wmo:SIPF1:1,2019-03-08T15:00:00Z,27.8620,-80.4450,1.0,2.6,18.0,99.0,'11111222,11111222,11144222' 
FIT,ioos:station:wmo:SIPF1:1,2019-03-08T15:15:00Z,27.8620,-80.4450,1.0,2.8,16.0,99.0,'11111222,11111222,11144222' 
FIT,ioos:station:wmo:SIPF1:1,2019-03-08T15:30:00Z,27.8620,-80.4450,1.0,3.6,19.0,99.0,'11111222,11111222,11144222' 
FIT,ioos:station:wmo:SIPF1:1,2019-03-08T15:45:00Z,27.8620,-80.4450,1.0,3.6,9.0,99.0,'11111222,11111222,11144222' 
FIT,ioos:station:wmo:SIPF1:1,2019-03-08T16:00:00Z,27.8620,-80.4450,1.0,4.1,10.0,-9999.0,'1111122,1111122,1111122' 
FIT,ioos:station:wmo:SIPF1:1,2019-03-08T16:15:00Z,27.8620,-80.4450,1.0,4.4,12.0,99.0,'11111222,11111222,11144222' 
FIT,ioos:station:wmo:SIPF1:1,2019-03-08T16:30:00Z,27.8620,-80.4450,1.0,4.9,13.0,99.0,'11111222,11111222,11144222' 
FIT,ioos:station:wmo:SIPF1:1,2019-03-08T16:45:00Z,27.8620,-80.4450,1.0,5.1,30.0,-9999.0,'1111122,1111122,1111122' 
FIT,ioos:station:wmo:SIPF1:1,2019-03-08T17:00:00Z,27.8620,-80.4450,1.0,5.0,30.0,99.0,'11111222,11111222,11144222' 
FIT,ioos:station:wmo:SIPF1:1,2019-03-08T17:15:00Z,27.8620,-80.4450,1.0,5.0,29.0,99.0,'11111222,11111222,11144222' 
FIT,ioos:station:wmo:SIPF1:1,2019-03-08T17:30:00Z,27.8620,-80.4450,1.0,4.4,29.0,99.0,'11111222,11111222,11144222' 
FIT,ioos:station:wmo:SIPF1:1,2019-03-08T17:45:00Z,27.8620,-80.4450,1.0,4.6,20.0,-9999.0,'1111122,1111122,1111122' 
FIT,ioos:station:wmo:SIPF1:1,2019-03-08T18:00:00Z,27.8620,-80.4450,1.0,4.7,16.0,99.0,'11111222,11111222,11144222' 
FIT,ioos:station:wmo:SIPF1:1,2019-03-08T18:15:00Z,27.8620,-80.4450,1.0,5.1,22.0,99.0,'11111222,11111222,11144222' 
FIT,ioos:station:wmo:SIPF1:1,2019-03-08T18:30:00Z,27.8620,-80.4450,1.0,5.8,26.0,99.0,'11111222,11111222,11144222' 
FIT,ioos:station:wmo:SIPF1:1,2019-03-08T18:45:00Z,27.8620,-80.4450,1.0,5.7,30.0,-9999.0,'1111122,1111122,1111122' 
FIT,ioos:station:wmo:SIPF1:1,2019-03-08T19:00:00Z,27.8620,-80.4450,1.0,5.0,35.0,99.0,'11111222,11111222,11144222' 
FIT,ioos:station:wmo:SIPF1:1,2019-03-08T19:15:00Z,27.8620,-80.4450,1.0,4.5,33.0,99.0,'11111222,11111222,11144222' 
FIT,ioos:station:wmo:SIPF1:1,2019-03-08T19:30:00Z,27.8620,-80.4450,1.0,4.0,33.0,99.0,'11111222,11111222,11144222' 
FIT,ioos:station:wmo:SIPF1:1,2019-03-08T19:45:00Z,27.8620,-80.4450,1.0,3.6,30.0,-9999.0,'1111122,1111122,1111122' 
FIT,ioos:station:wmo:SIPF1:1,2019-03-08T20:00:00Z,27.8620,-80.4450,1.0,3.7,28.0,99.0,'11111222,11111222,11144222' 
FIT,ioos:station:wmo:SIPF1:1,2019-03-08T20:15:00Z,27.8620,-80.4450,1.0,3.0,36.0,99.0,'11111222,11111222,11144222' 
FIT,ioos:station:wmo:SIPF1:1,2019-03-08T20:45:00Z,27.8620,-80.4450,1.0,3.1,40.0,-9999.0,'1111122,1111122,1111122' 
FIT,ioos:station:wmo:SIPF1:1,2019-03-08T21:15:00Z,27.8620,-80.4450,1.0,1.6,50.0,99.0,'11111222,11111222,11144222' 
FIT,ioos:station:wmo:SIPF1:1,2019-03-08T21:45:00Z,27.8620,-80.4450,1.0,1.0,60.0,-9999.0,'1111122,1111122,1111122' 
FIT,ioos:station:wmo:SIPF1:1,2019-03-08T22:15:00Z,27.8620,-80.4450,1.0,1.5,60.0,99.0,'11111222,11111222,11144222' 
FIT,ioos:station:wmo:SIPF1:1,2019-03-08T22:30:00Z,27.8620,-80.4450,1.0,1.7,49.0,99.0,'11111222,11111222,11144222' 
FIT,ioos:station:wmo:SIPF1:1,2019-03-08T22:45:00Z,27.8620,-80.4450,1.0,1.5,60.0,-9999.0,'1111122,1111122,1111122' 
FIT,ioos:station:wmo:SIPF1:1,2019-03-08T23:00:00Z,27.8620,-80.4450,1.0,1.2,53.0,99.0,'11111222,11111222,11144222' 
FIT,ioos:station:wmo:SIPF1:1,2019-03-08T23:15:00Z,27.8620,-80.4450,1.0,0.8,68.0,99.0,'11111222,11111222,11144222' 
FIT,ioos:station:wmo:SIPF1:1,2019-03-08T23:30:00Z,27.8620,-80.4450,1.0,1.3,61.0,99.0,'11111222,11111222,11144222' 
FIT,ioos:station:wmo:SIPF1:1,2019-03-08T23:45:00Z,27.8620,-80.4450,1.0,1.5,90.0,-9999.0,'1111122,1111122,1111122' 
FIT,ioos:station:wmo:SIPF1:1,2019-03-09T00:00:00Z,27.8620,-80.4450,1.0,1.6,68.0,99.0,'11111222,11111222,11144222' 
FIT,ioos:station:wmo:SIPF1:1,2019-03-09T00:15:00Z,27.8620,-80.4450,1.0,1.7,62.0,99.0,'11111222,11111222,11144222' 
FIT,ioos:station:wmo:SIPF1:1,2019-03-09T00:30:00Z,27.8620,-80.4450,1.0,1.8,62.0,99.0,'11111222,11111222,11144222' 
FIT,ioos:station:wmo:SIPF1:1,2019-03-09T00:45:00Z,27.8620,-80.4450,1.0,2.1,70.0,-9999.0,'1111122,1111122,1111122' 
FIT,ioos:station:wmo:SIPF1:1,2019-03-09T01:00:00Z,27.8620,-80.4450,1.0,2.3,71.0,99.0,'11111222,11111222,11144222' 
FIT,ioos:station:wmo:SIPF1:1,2019-03-09T01:15:00Z,27.8620,-80.4450,1.0,2.0,66.0,99.0,'11111222,11111222,11144222' 
FIT,ioos:station:wmo:SIPF1:1,2019-03-09T01:30:00Z,27.8620,-80.4450,1.0,1.7,82.0,99.0,'11111222,11111222,11144222' 
FIT,ioos:station:wmo:SIPF1:1,2019-03-09T01:45:00Z,27.8620,-80.4450,1.0,2.1,90.0,-9999.0,'1111122,1111122,1111122' 
FIT,ioos:station:wmo:SIPF1:1,2019-03-09T02:00:00Z,27.8620,-80.4450,1.0,2.3,109.0,99.0,'11111222,11111222,11144222' 
FIT,ioos:station:wmo:SIPF1:1,2019-03-09T02:15:00Z,27.8620,-80.4450,1.0,2.2,114.0,99.0,'11111222,11111222,11144222' 
FIT,ioos:station:wmo:SIPF1:1,2019-03-09T02:30:00Z,27.8620,-80.4450,1.0,2.0,120.0,99.0,'11111222,11111222,11144222' 
FIT,ioos:station:wmo:SIPF1:1,2019-03-09T02:45:00Z,27.8620,-80.4450,1.0,2.1,140.0,-9999.0,'1111122,1111122,1111122' 
FIT,ioos:station:wmo:SIPF1:1,2019-03-09T03:00:00Z,27.8620,-80.4450,1.0,1.9,143.0,99.0,'11111222,11111222,11144222' 
FIT,ioos:station:wmo:SIPF1:1,2019-03-09T03:15:00Z,27.8620,-80.4450,1.0,1.9,148.0,99.0,'11111222,11111222,11144222' 
FIT,ioos:station:wmo:SIPF1:1,2019-03-09T03:30:00Z,27.8620,-80.4450,1.0,1.7,151.0,99.0,'11111222,11111222,11144222' 
FIT,ioos:station:wmo:SIPF1:1,2019-03-09T03:45:00Z,27.8620,-80.4450,1.0,2.6,140.0,-9999.0,'1111122,1111122,1111122' 
FIT,ioos:station:wmo:SIPF1:1,2019-03-09T04:00:00Z,27.8620,-80.4450,1.0,3.3,134.0,99.0,'11111222,11111222,11144222' 
FIT,ioos:station:wmo:SIPF1:1,2019-03-09T04:15:00Z,27.8620,-80.4450,1.0,3.0,131.0,99.0,'11111222,11111222,11144222' 
FIT,ioos:station:wmo:SIPF1:1,2019-03-09T04:30:00Z,27.8620,-80.4450,1.0,2.5,132.0,99.0,'11111222,11111222,11144222' 
FIT,ioos:station:wmo:SIPF1:1,2019-03-09T04:45:00Z,27.8620,-80.4450,1.0,2.6,140.0,-9999.0,'1111122,1111122,1111122' 
FIT,ioos:station:wmo:SIPF1:1,2019-03-09T05:00:00Z,27.8620,-80.4450,1.0,2.6,131.0,99.0,'11111222,11111222,11144222' 
FIT,ioos:station:wmo:SIPF1:1,2019-03-09T05:15:00Z,27.8620,-80.4450,1.0,2.5,126.0,99.0,'11111222,11111222,11144222' 
FIT,ioos:station:wmo:SIPF1:1,2019-03-09T05:30:00Z,27.8620,-80.4450,1.0,2.6,121.0,99.0,'11111222,11111222,11144222' 
FIT,ioos:station:wmo:SIPF1:1,2019-03-09T05:45:00Z,27.8620,-80.4450,1.0,2.1,110.0,-9999.0,'1111122,1111122,1111122' 
FIT,ioos:station:wmo:SIPF1:1,2019-03-09T06:00:00Z,27.8620,-80.4450,1.0,1.8,109.0,99.0,'11111222,11111222,11144222' 
FIT,ioos:station:wmo:SIPF1:1,2019-03-09T06:15:00Z,27.8620,-80.4450,1.0,1.2,93.0,99.0,'11111222,11111222,11144222' 
FIT,ioos:station:wmo:SIPF1:1,2019-03-09T06:30:00Z,27.8620,-80.4450,1.0,1.2,85.0,99.0,'11111222,11111222,11144222' 
FIT,ioos:station:wmo:SIPF1:1,2019-03-09T06:45:00Z,27.8620,-80.4450,1.0,1.5,100.0,-9999.0,'1111122,1111122,1111122' 
FIT,ioos:station:wmo:SIPF1:1,2019-03-09T07:00:00Z,27.8620,-80.4450,1.0,1.1,96.0,99.0,'11111222,11111222,11144222' 
FIT,ioos:station:wmo:SIPF1:1,2019-03-09T07:15:00Z,27.8620,-80.4450,1.0,2.1,92.0,99.0,'11111222,11111222,11144222' 
FIT,ioos:station:wmo:SIPF1:1,2019-03-09T07:30:00Z,27.8620,-80.4450,1.0,2.5,102.0,99.0,'11111222,11111222,11144222' 
FIT,ioos:station:wmo:SIPF1:1,2019-03-09T07:45:00Z,27.8620,-80.4450,1.0,2.6,110.0,-9999.0,'1111122,1111122,1111122' 
FIT,ioos:station:wmo:SIPF1:1,2019-03-09T08:00:00Z,27.8620,-80.4450,1.0,2.4,116.0,99.0,'11111222,11111222,11144222' 
FIT,ioos:station:wmo:SIPF1:1,2019-03-09T08:15:00Z,27.8620,-80.4450,1.0,1.9,111.0,99.0,'11111222,11111222,11144222' 
FIT,ioos:station:wmo:SIPF1:1,2019-03-09T08:30:00Z,27.8620,-80.4450,1.0,1.9,119.0,99.0,'11111222,11111222,11144222' 
FIT,ioos:station:wmo:SIPF1:1,2019-03-09T08:45:00Z,27.8620,-80.4450,1.0,1.5,100.0,-9999.0,'1111122,1111122,1111122' 
FIT,ioos:station:wmo:SIPF1:1,2019-03-09T09:00:00Z,27.8620,-80.4450,1.0,1.1,115.0,99.0,'11111222,11111222,11144222' 
FIT,ioos:station:wmo:SIPF1:1,2019-03-09T09:15:00Z,27.8620,-80.4450,1.0,1.4,100.0,99.0,'11111222,11111222,11144222' 
FIT,ioos:station:wmo:SIPF1:1,2019-03-09T09:30:00Z,27.8620,-80.4450,1.0,2.3,102.0,99.0,'11111222,11111222,11144222' 
FIT,ioos:station:wmo:SIPF1:1,2019-03-09T09:45:00Z,27.8620,-80.4450,1.0,3.1,90.0,-9999.0,'1111122,1111122,1111122' 
FIT,ioos:station:wmo:SIPF1:1,2019-03-09T10:00:00Z,27.8620,-80.4450,1.0,3.2,101.0,99.0,'11111222,11111222,11144222' 
FIT,ioos:station:wmo:SIPF1:1,2019-03-09T10:15:00Z,27.8620,-80.4450,1.0,2.9,111.0,99.0,'11111222,11111222,11144222' 
FIT,ioos:station:wmo:SIPF1:1,2019-03-09T10:30:00Z,27.8620,-80.4450,1.0,2.7,112.0,99.0,'11111222,11111222,11144222' 
FIT,ioos:station:wmo:SIPF1:1,2019-03-09T10:45:00Z,27.8620,-80.4450,1.0,3.1,110.0,-9999.0,'1111122,1111122,1111122' 
FIT,ioos:station:wmo:SIPF1:1,2019-03-09T11:00:00Z,27.8620,-80.4450,1.0,2.9,114.0,99.0,'11111222,11111222,11144222' 
FIT,ioos:station:wmo:SIPF1:1,2019-03-09T11:15:00Z,27.8620,-80.4450,1.0,2.9,105.0,99.0,'11111222,11111222,11144222' 
FIT,ioos:station:wmo:SIPF1:1,2019-03-09T11:30:00Z,27.8620,-80.4450,1.0,2.8,98.0,99.0,'11111222,11111222,11144222' 
FIT,ioos:station:wmo:SIPF1:1,2019-03-09T11:45:00Z,27.8620,-80.4450,1.0,2.6,100.0,-9999.0,'1111122,1111122,1111122' 
FIT,ioos:station:wmo:SIPF1:1,2019-03-09T12:00:00Z,27.8620,-80.4450,1.0,2.2,108.0,99.0,'11111222,11111222,11144222' 
FIT,ioos:station:wmo:SIPF1:1,2019-03-09T12:15:00Z,27.8620,-80.4450,1.0,2.6,119.0,99.0,'11111222,11111222,11144222' 
FIT,ioos:station:wmo:SIPF1:1,2019-03-09T12:30:00Z,27.8620,-80.4450,1.0,2.8,106.0,99.0,'11111222,11111222,11144222' 
FIT,ioos:station:wmo:SIPF1:1,2019-03-09T12:45:00Z,27.8620,-80.4450,1.0,3.1,110.0,-9999.0,'1111122,1111122,1111122' 
FIT,ioos:station:wmo:SIPF1:1,2019-03-09T13:00:00Z,27.8620,-80.4450,1.0,2.9,112.0,99.0,'11111222,11111222,11144222' 
FIT,ioos:station:wmo:SIPF1:1,2019-03-09T13:15:00Z,27.8620,-80.4450,1.0,2.7,109.0,99.0,'11111222,11111222,11144222' 
FIT,ioos:station:wmo:SIPF1:1,2019-03-09T13:30:00Z,27.8620,-80.4450,1.0,2.7,104.0,99.0,'11111222,11111222,11144222' 
FIT,ioos:station:wmo:SIPF1:1,2019-03-09T13:45:00Z,27.8620,-80.4450,1.0,2.6,100.0,-9999.0,'1111122,1111122,1111122' 
FIT,ioos:station:wmo:SIPF1:1,2019-03-09T14:00:00Z,27.8620,-80.4450,1.0,2.5,99.0,99.0,'11111222,11111222,11144222' 
FIT,ioos:station:wmo:SIPF1:1,2019-03-09T14:15:00Z,27.8620,-80.4450,1.0,2.3,101.0,99.0,'11111222,11111222,11144222' 
FIT,ioos:station:wmo:SIPF1:1,2019-03-09T14:30:00Z,27.8620,-80.4450,1.0,2.2,102.0,99.0,'11111222,11111222,11144222' 
FIT,ioos:station:wmo:SIPF1:1,2019-03-09T14:45:00Z,27.8620,-80.4450,1.0,2.1,100.0,-9999.0,'1111122,1111122,1111122' 
FIT,ioos:station:wmo:SIPF1:1,2019-03-09T15:00:00Z,27.8620,-80.4450,1.0,2.2,89.0,99.0,'11111222,11111222,11144222' 
FIT,ioos:station:wmo:SIPF1:1,2019-03-09T15:15:00Z,27.8620,-80.4450,1.0,2.6,83.0,99.0,'11111222,11111222,11144222' 
FIT,ioos:station:wmo:SIPF1:1,2019-03-09T15:30:00Z,27.8620,-80.4450,1.0,2.7,93.0,99.0,'11111222,11111222,11144222' 
FIT,ioos:station:wmo:SIPF1:1,2019-03-09T15:45:00Z,27.8620,-80.4450,1.0,2.6,100.0,-9999.0,'1111122,1111122,1111122' 
FIT,ioos:station:wmo:SIPF1:1,2019-03-09T16:00:00Z,27.8620,-80.4450,1.0,2.8,108.0,99.0,'11111222,11111222,11144222' 
FIT,ioos:station:wmo:SIPF1:1,2019-03-09T16:15:00Z,27.8620,-80.4450,1.0,3.0,108.0,99.0,'11111222,11111222,11144222' 
FIT,ioos:station:wmo:SIPF1:1,2019-03-09T16:30:00Z,27.8620,-80.4450,1.0,2.9,109.0,99.0,'11111222,11111222,11144222' 
FIT,ioos:station:wmo:SIPF1:1,2019-03-09T16:45:00Z,27.8620,-80.4450,1.0,3.1,110.0,-9999.0,'1111122,1111122,1111122' 
FIT,ioos:station:wmo:SIPF1:1,2019-03-09T17:00:00Z,27.8620,-80.4450,1.0,2.9,110.0,99.0,'11111222,11111222,11144222' 
FIT,ioos:station:wmo:SIPF1:1,2019-03-09T17:15:00Z,27.8620,-80.4450,1.0,2.6,113.0,99.0,'11111222,11111222,11144222' 
FIT,ioos:station:wmo:SIPF1:1,2019-03-09T17:30:00Z,27.8620,-80.4450,1.0,2.6,112.0,99.0,'11111222,11111222,11144222' 
FIT,ioos:station:wmo:SIPF1:1,2019-03-09T17:45:00Z,27.8620,-80.4450,1.0,2.6,100.0,-9999.0,'1111122,1111122,1111122' 
FIT,ioos:station:wmo:SIPF1:1,2019-03-09T18:00:00Z,27.8620,-80.4450,1.0,3.0,105.0,99.0,'11111222,11111222,11144222' 
FIT,ioos:station:wmo:SIPF1:1,2019-03-09T18:15:00Z,27.8620,-80.4450,1.0,3.2,106.0,99.0,'11111222,11111222,11144222' 
FIT,ioos:station:wmo:SIPF1:1,2019-03-09T18:30:00Z,27.8620,-80.4450,1.0,3.7,106.0,99.0,'11111222,11111222,11144222' 
FIT,ioos:station:wmo:SIPF1:1,2019-03-09T18:45:00Z,27.8620,-80.4450,1.0,3.6,110.0,-9999.0,'1111122,1111122,1111122' 
FIT,ioos:station:wmo:SIPF1:1,2019-03-09T19:00:00Z,27.8620,-80.4450,1.0,3.1,107.0,99.0,'11111222,11111222,11144222' 
FIT,ioos:station:wmo:SIPF1:1,2019-03-09T19:15:00Z,27.8620,-80.4450,1.0,3.0,110.0,99.0,'11111222,11111222,11144222' 
FIT,ioos:station:wmo:SIPF1:1,2019-03-09T19:30:00Z,27.8620,-80.4450,1.0,3.7,108.0,99.0,'11111222,11111222,11144222' 
FIT,ioos:station:wmo:SIPF1:1,2019-03-09T19:45:00Z,27.8620,-80.4450,1.0,4.1,110.0,-9999.0,'1111122,1111122,1111122' 
FIT,ioos:station:wmo:SIPF1:1,2019-03-09T20:00:00Z,27.8620,-80.4450,1.0,3.4,104.0,99.0,'11111222,11111222,11144222' 
FIT,ioos:station:wmo:SIPF1:1,2019-03-09T20:15:00Z,27.8620,-80.4450,1.0,3.5,111.0,99.0,'11111222,11111222,11144222' 
FIT,ioos:station:wmo:SIPF1:1,2019-03-09T20:30:00Z,27.8620,-80.4450,1.0,3.6,114.0,99.0,'11111222,11111222,11144222' 
FIT,ioos:station:wmo:SIPF1:1,2019-03-09T20:45:00Z,27.8620,-80.4450,1.0,3.1,110.0,-9999.0,'1111122,1111122,1111122' 
FIT,ioos:station:wmo:SIPF1:1,2019-03-09T21:00:00Z,27.8620,-80.4450,1.0,3.6,116.0,99.0,'11111222,11111222,11144222' 
FIT,ioos:station:wmo:SIPF1:1,2019-03-09T21:15:00Z,27.8620,-80.4450,1.0,4.2,118.0,99.0,'11111222,11111222,11144222' 